Home   Weather   Langfang   Past weeks

Flag for China Past Weather in Langfang, Hebei, China — Yesterday and Last 2 Weeks

Now
37 °F

Fog.


Feels Like: 33 °F
Forecast: 23 / 39 °F
Wind: 6 mph from North

Location: Beijing Airport

Current Time: Dec 4, 2016 at 10:08:54 am

Latest Report: Dec 4, 2016 at 9:30 am


Visibility: 2 mi

Pressure: 30.04 "Hg

Humidity: 70%

Dew Point: 28 °F

Location of LangfangLocation

Past Weather in Langfang — Graph

°F

Langfang Temperature Yesterday

Maximum temperature yesterday: 45 °F (at 1:00 pm)
Minimum temperature yesterday: 23 °F (at 7:00 am)
Average temperature yesterday: 33 °F

High & Low Weather Summary for the Past Weeks

 TemperatureHumidityPressure
High57 °F (Nov 19, 1:00 pm)100% (Nov 26, 8:00 am)30.74 "Hg (Nov 26, 8:00 am)
Low16 °F (Nov 23, 5:30 am)14% (Nov 27, 12:00 pm)30.01 "Hg (Dec 4, 3:30 am)
Average33 °F58%30.37 "Hg
* Reported Nov 19 9:00 am — Dec 4 9:00 am, Langfang, Weather by CustomWeather, © 2016

Note: Actual official high and low records may vary slightly from our data, if they occured in-between our weather recording intervals... More about our weather records

Advertising

Langfang Weather History for the Previous 24 Hours

Scroll right to see more
 ConditionsComfort  
Time TempWeatherWind HumidityBarometerVisibility
9:00 am
Sun, Dec 4
36 °FFog.8 mph70%30.04 "Hg2 mi
8:30 am34 °FFog.8 mph75%30.04 "Hg2 mi
8:00 am34 °FFog.6 mph75%30.04 "Hg1 mi
7:30 am32 °FIce fog.8 mph80%30.01 "Hg1 mi
7:00 am28 °FIce fog.6 mph80%30.01 "Hg1 mi
6:30 am28 °FIce fog.3 mph86%30.01 "Hg1 mi
6:00 am28 °FIce fog.3 mph86%30.01 "Hg1 mi
5:30 am28 °FIce fog.3 mph86%30.01 "Hg1 mi
5:00 am27 °FIce fog.3 mph86%30.01 "Hg1 mi
4:30 am30 °FIce fog.3 mph86%30.01 "Hg1 mi
4:00 am28 °FIce fog.3 mph93%30.01 "Hg1 mi
3:30 am30 °FIce fog.3 mph93%30.01 "Hg1 mi
3:00 am27 °FIce fog.3 mph100%30.04 "Hg1 mi
2:30 am28 °FIce fog.3 mph93%30.04 "Hg1 mi
2:00 am28 °FIce fog.1 mph100%30.04 "Hg1 mi
1:30 am28 °FIce fog.No wind100%30.04 "Hg1 mi
1:00 am30 °FIce fog.1 mph93%30.04 "Hg1 mi
12:30 am28 °FIce fog.1 mph100%30.04 "Hg1 mi
12:00 am28 °FIce fog.1 mph93%30.07 "Hg1 mi
11:30 pm
Sat, Dec 3
32 °FIce fog.No wind93%30.07 "Hg1 mi
11:00 pm30 °FIce fog.3 mph93%30.07 "Hg1 mi
10:30 pm34 °FFog.1 mph87%30.07 "Hg1 mi
10:00 pm32 °FHaze.1 mph93%30.07 "Hg1 mi
9:30 pm32 °FHaze.1 mph93%30.07 "Hg1 mi
9:00 pm32 °FHaze.1 mph93%30.07 "Hg1 mi
8:30 pm34 °FHaze.1 mph87%30.07 "Hg1 mi
8:00 pm30 °FHaze.3 mph93%30.07 "Hg1 mi
7:30 pm32 °FHaze.1 mph87%30.07 "Hg1 mi
7:00 pm32 °FHaze.1 mph80%30.09 "Hg1 mi
6:30 pm32 °FHaze.1 mph80%30.09 "Hg1 mi
6:00 pm36 °FHaze.1 mph75%30.09 "Hg1 mi
5:30 pm34 °FHaze.3 mph75%30.07 "Hg1 mi
5:00 pm36 °FHaze.3 mph70%30.07 "Hg1 mi
4:30 pm41 °FHaze.3 mph61%30.07 "Hg2 mi
4:00 pm43 °FHaze.1 mph53%30.07 "Hg2 mi
3:30 pm45 °FHaze.3 mph49%30.07 "Hg2 mi
3:00 pm45 °FHaze.1 mph49%30.09 "Hg2 mi
2:30 pm45 °FHaze.1 mph49%30.09 "Hg2 mi
2:00 pm45 °FHaze.3 mph49%30.09 "Hg2 mi
1:30 pm45 °FHaze.3 mph49%30.09 "Hg2 mi
1:00 pm45 °FHaze.1 mph49%30.12 "Hg2 mi
12:30 pm43 °FHaze.1 mph49%30.12 "Hg2 mi
12:00 pm41 °FHaze.1 mph57%30.15 "Hg2 mi
11:30 am39 °FHaze.3 mph56%30.18 "Hg3 mi
11:00 am39 °FClear.1 mph56%30.21 "Hg4 mi
10:30 am36 °FClear.1 mph70%30.21 "Hg4 mi
10:00 am34 °FClear.1 mph75%30.21 "Hg4 mi
Weather by CustomWeather, © 2016

See weather overviewHow to use our weather pages